Tracking 23764 objects as of 17-Oct-2021
HD Live streaming from Space Station
objects crossing your sky now

IRIDIUM 33 DEB

Track IRIDIUM 33 DEB now!
10-day predictions


NORAD ID: 34693
Int'l Code: 1997-051KQ
Perigee: 698.7 km
Apogee: 731.6 km
Inclination: 86.3 °
Period: 98.9 minutes
Semi major axis: 7086 km
RCS: 0.01 m2 (small)
Launch date: September 14, 1997
Source: United States (US)
Launch site: TYURATAM MISSILE AND SPACE COMPLEX (TTMTR)

Note: This is SATELLITE DEBRIS
aabbcc
Your satellite tracking list
Your tracking list is empty




NASA's NSSDC Master Catalog

Two Line Element Set (TLE):
1 34693U 97051KQ  21289.41893962  .00001526  00000-0  34546-3 0  9990
2 34693  86.3348 271.5898 0023172 249.1852 263.1370 14.55411244666275
Source of the keplerian elements: AFSPC